Wetbulb
48.63 45.24 43.92 46.61 48.43 48.49 47.88 46.81 45.70 47.83 49.97 47.92 45.79 46.68 50.58 52.95 53.35 53.47 54.93 57.08 59.24 59.67 59.67 60.65 61.73 63.32 64.47 66.33 68.13 71.15 71.93 78.05 75.94 73.49 73.45 74.30 73.83 75.35 75.94 76.64 78.21 77.27 76.48 76.26
45.81 43.06 47.67 48.82 48.80 47.72 47.36 45.95 45.70 47.56 49.02 48.49 46.54 45.45 48.35 50.85 52.53 53.58 53.64 55.24 56.80 57.06 59.37 61.92 62.96 63.44 64.06 65.44 67.54 69.90 71.18 75.48 76.70 74.22 76.08 74.60 74.41 74.00 75.25 76.44 77.32 76.98 76.43 77.03
43.94 45.76 48.27 47.30 46.94 46.91 47.21 45.93 46.04 45.66 48.29 48.99 47.11 44.22 46.50 50.21 52.49 53.79 54.25 56.57 58.23 58.56 59.41 62.06 63.36 65.15 64.60 65.16 66.69 68.70 69.65 73.54 76.43 77.25 75.91 75.72 75.67 75.92 75.03 75.50 75.32 76.01 76.43 76.90
46.02 48.38 46.39 46.19 45.90 47.79 44.92 48.40 47.67 46.53 45.93 41.90 47.26 37.77 45.41 48.06 49.34 51.44 53.77 56.30 57.21 58.75 60.51 62.11 63.35 65.14 65.71 66.10 66.20 65.40 69.28 71.37 73.05 76.27 75.47 78.11 73.74 72.06 73.00 74.60 74.65 75.84 76.63 76.52
44.91 46.09 45.68 45.43 46.22 48.45 46.46 49.54 47.84 47.46 46.20 45.37 44.61 40.42 43.73 49.00 46.92 49.59 52.53 55.61 57.93 59.47 60.58 61.75 63.52 65.05 66.65 68.32 68.29 68.84 68.62 70.93 73.31 74.25 75.04 74.13 74.44 72.86 73.39 73.78 77.82 77.60 76.68 76.04
47.50 50.16 49.38 48.92 49.70 49.65 50.31 47.64 48.01 47.43 46.10 40.27 44.05 42.86 42.16 46.11 49.07 50.77 53.85 55.64 56.69 58.46 60.03 61.33 63.61 64.98 66.07 68.48 69.73 69.92 70.32 70.94 71.13 71.67 72.93 73.72 73.80 74.20 73.59 74.10 73.65 73.94 72.84 72.53
47.07 47.34 49.81 50.69 47.85 49.87 48.67 46.48 40.76 39.31 39.29 39.24 46.90 44.20 45.44 50.55 50.65 54.38 54.94 55.99 57.06 57.72 58.25 59.04 60.54 61.86 63.83 65.29 66.53 67.76 68.68 68.78 70.07 70.61 71.08 71.44 72.86 72.71 72.92 71.46 71.47 71.90 69.59 68.91
42.72 41.01 47.08 49.34 48.13 46.50 46.74 46.86 42.04 36.25 37.71 40.28 46.55 41.93 46.76 53.61 55.20 55.27 56.48 56.77 57.95 58.09 59.39 59.34 59.73 60.80 60.88 62.29 63.36 63.78 64.29 64.53 65.59 66.07 66.46 67.46 68.12 67.69 68.24 68.96 67.55 66.57 66.04 67.00
43.26 43.34 49.42 50.06 50.77 50.44 47.04 44.48 49.35 44.80 46.00 42.66 43.87 48.47 51.96 53.28 53.58 54.70 55.72 56.82 56.77 57.35 58.06 59.47 60.41 60.28 61.33 62.04 62.64 63.15 63.52 63.74 63.87 64.25 65.34 65.76 66.26 66.65 66.27 67.96 68.50 65.11 69.92 65.86
48.11 42.12 48.34 49.43 50.81 50.71 49.87 50.74 44.22 45.12 38.12 37.07 41.82 44.02 44.21 49.86 51.40 53.64 54.18 54.97 55.88 56.76 57.39 58.51 60.12 60.52 61.84 61.63 61.98 62.12 62.02 61.77 62.07 62.47 62.63 62.58 63.03 63.02 63.16 64.80 65.09 65.51 66.10 66.42
50.38 47.65 45.77 48.96 47.11 46.46 47.35 47.55 47.61 47.59 44.95 39.14 38.26 42.08 52.48 51.32 53.72 53.53 54.48 55.61 55.89 56.30 56.78 57.87 59.09 59.26 60.24 60.79 60.20 60.34 60.32 60.10 60.11 60.51 60.85 61.16 61.20 61.69 62.01 62.06 62.27 62.86 63.72 63.93
50.94 47.90 43.67 45.80 50.38 51.21 51.08 47.23 48.18 43.80 41.88 45.52 44.42 42.99 53.27 53.90 55.22 55.50 54.70 55.43 55.96 56.24 56.81 57.48 57.82 57.98 58.12 58.72 58.01 59.00 58.84 58.81 58.93 59.34 59.12 59.31 59.81 60.22 60.54 60.58 61.08 61.78 61.49 61.80
50.85 47.25 41.74 42.12 47.26 49.83 47.73 49.57 49.51 49.15 48.05 43.93 40.68 43.78 53.20 54.26 54.64 55.23 54.86 54.95 55.45 55.19 56.01 56.60 56.81 57.36 57.48 57.76 57.97 57.68 57.83 58.02 58.37 58.10 58.01 58.71 58.84 59.09 59.45 59.60 59.98 59.72 59.39 59.34
53.25 47.06 45.29 40.59 42.70 46.55 44.58 46.30 48.15 47.48 44.06 43.25 43.83 45.13 50.12 51.59 51.70 53.28 53.87 54.66 54.86 54.06 54.70 55.04 55.55 56.02 56.73 57.10 56.82 57.20 57.38 57.92 57.66 57.23 57.23 57.18 57.47 57.65 57.66 58.07 58.08 57.84 57.77 57.22
50.42 44.18 46.10 44.65 45.97 45.88 46.26 45.93 46.68 45.51 46.68 43.91 45.33 44.97 47.98 50.05 49.81 50.39 51.82 52.83 52.82 52.89 53.85 54.38 54.78 55.67 56.22 56.73 56.97 57.00 57.10 57.00 57.06 56.20 55.86 55.99 56.47 56.76 56.42 56.20 56.59 57.07 57.23 56.18
51.59 43.90 45.96 42.96 45.03 45.00 43.22 44.89 45.18 45.51 45.57 45.30 45.55 44.84 49.47 50.04 50.57 50.77 52.02 52.31 51.95 52.39 53.10 53.97 54.75 55.32 55.55 55.93 56.06 56.37 56.15 56.24 56.56 55.64 54.99 55.39 55.23 55.11 55.19 56.14 56.24 56.70 55.38 55.79
48.29 45.77 44.14 40.79 44.24 42.70 39.10 43.30 44.15 44.86 45.88 45.15 42.08 46.27 50.27 49.63 49.98 51.23 51.88 52.33 52.28 52.84 53.56 54.39 54.86 55.19 55.54 55.67 56.18 55.47 55.59 55.67 54.99 54.40 54.13 53.88 53.88 53.33 53.37 53.59 53.27 54.47 55.49 56.31
48.37 46.60 44.88 41.42 41.79 32.40 43.95 47.62 46.47 44.80 46.28 46.83 46.87 47.97 49.47 49.99 52.02 52.75 53.64 53.11 52.90 52.97 53.24 53.97 54.72 55.03 55.46 55.86 55.40 55.31 54.93 54.32 53.75 53.16 52.63 52.53 52.35 51.84 52.04 52.06 52.00 54.11 53.69 52.94
50.47 47.72 43.49 39.14 38.39 41.83 43.57 45.03 45.45 44.26 44.81 48.52 48.77 49.44 50.31 52.09 52.15 51.63 54.13 54.23 53.65 53.47 53.24 53.64 54.37 54.83 55.26 54.69 54.76 54.30 53.66 53.35 52.26 51.36 51.27 51.21 51.10 50.64 50.45 50.19 50.26 49.76 48.08 47.62
48.24 49.50 44.39 40.74 36.19 34.39 45.19 48.16 49.79 48.38 41.73 50.18 49.71 49.01 49.37 49.90 44.65 49.06 52.45 54.18 53.58 53.11 53.49 53.19 54.53 54.60 54.10 54.23 54.44 52.98 51.91 51.18 50.35 50.33 50.25 50.55 50.50 49.53 47.95 46.53 45.91 46.05 44.41 42.00
42.46 43.47 40.16 39.76 38.82 42.51 48.76 48.80 49.35 38.61 41.40 49.30 50.02 49.62 49.47 47.89 49.06 51.83 53.02 52.62 52.05 52.50 53.07 54.05 54.02 53.10 53.39 54.03 53.24 50.86 50.21 49.42 50.11 50.05 49.64 48.35 46.96 44.69 44.31 44.03 42.18 39.29 39.01 38.72
41.66 40.69 40.34 41.79 36.67 33.91 50.48 47.93 42.53 47.86 49.92 50.18 49.74 49.85 49.37 50.75 51.29 51.24 51.18 50.05 50.42 50.29 52.22 52.87 52.12 52.24 52.94 52.49 50.91 49.22 48.42 49.70 49.16 46.31 44.20 43.25 43.12 42.40 39.52 37.88 37.52 37.80 37.37 36.80
41.45 45.55 43.07 43.63 44.12 50.82 50.68 50.73 51.57 50.47 49.35 49.56 50.05 50.54 49.41 48.35 48.16 48.76 49.99 49.93 50.99 51.47 51.59 52.05 51.35 50.88 50.90 50.36 49.62 47.84 48.24 46.50 43.21 41.82 40.76 40.47 38.19 37.14 37.26 37.49 37.07 36.24 36.42 35.83
47.57 49.95 46.88 45.13 48.18 48.23 49.26 50.56 50.39 50.31 49.91 50.74 49.49 49.10 50.03 49.00 49.94 49.74 50.06 50.45 50.37 50.34 49.72 49.92 49.09 48.17 47.67 48.74 48.37 46.49 43.66 42.35 40.22 38.57 37.88 35.23 35.27 37.13 37.07 36.83 36.48 35.71 34.83 34.96
47.39 48.25 45.69 45.36 48.10 47.85 47.51 49.13 49.86 49.89 50.37 49.07 50.21 50.29 49.41 49.33 48.74 48.92 48.21 47.84 47.59 47.51 47.75 47.84 46.78 46.49 46.29 45.18 43.55 41.90 40.82 38.26 36.83 33.41 33.77 35.31 34.82 34.09 34.57 35.34 35.67 35.31 35.99 36.25
47.78 44.98 44.78 43.93 48.15 47.93 47.20 49.04 49.95 48.29 47.94 48.83 48.14 47.53 48.35 47.55 46.17 46.22 45.79 46.57 46.53 46.08 46.12 45.67 43.97 42.30 40.90 39.61 39.11 39.04 37.90 34.91 32.63 33.29 33.11 32.66 32.35 32.51 33.37 34.25 34.82 36.66 36.74 36.92
MSLP
1004.78 1004.13 1002.48 1001.94 1002.30 1002.05 1001.67 1001.85 1002.46 1003.06 1004.38 1006.80 1007.40 1007.22 1006.08 1006.20 1005.70 1004.44 1003.39 1003.04 1002.80 1002.61 1002.94 1003.54 1003.91 1004.15 1004.33 1004.68 1005.00 1005.38 1005.80 1006.01 1006.56 1006.69 1006.84 1007.15 1007.10 1007.33 1007.46 1007.63 1007.79 1008.42 1009.24 1009.45
1004.27 1003.05 1002.41 1002.46 1002.19 1002.06 1001.30 1001.21 1002.13 1003.02 1004.23 1006.02 1006.79 1006.75 1006.20 1005.72 1005.43 1003.85 1003.90 1002.87 1003.02 1003.53 1003.85 1004.32 1004.50 1004.49 1004.72 1004.94 1005.21 1005.52 1005.78 1006.04 1006.26 1006.37 1006.51 1006.36 1006.57 1006.63 1006.84 1007.06 1007.68 1008.26 1008.70 1008.87
1002.04 1002.06 1002.18 1002.04 1001.90 1001.47 1001.21 1001.17 1001.54 1002.60 1003.72 1004.52 1005.19 1006.09 1005.54 1004.62 1003.99 1003.07 1003.14 1003.07 1003.63 1004.32 1004.27 1004.54 1004.66 1005.03 1004.94 1005.14 1005.43 1005.32 1005.75 1006.03 1006.09 1006.21 1006.26 1006.63 1006.81 1006.71 1006.26 1006.66 1007.29 1007.97 1008.23 1008.39
1001.39 1000.84 1001.47 1001.33 1001.13 1001.35 1001.00 1001.68 1001.64 1002.17 1002.66 1002.79 1003.84 1003.78 1003.46 1003.97 1003.59 1003.81 1003.33 1003.81 1003.96 1004.37 1004.63 1004.95 1004.92 1005.29 1005.40 1005.41 1005.42 1005.76 1005.93 1006.00 1006.14 1006.18 1006.23 1006.23 1006.24 1006.11 1005.82 1006.21 1006.50 1007.31 1008.21 1008.36
1000.56 1000.18 1000.52 1000.43 1000.80 1001.13 1000.97 1001.09 1001.64 1001.95 1002.12 1002.20 1002.62 1002.97 1001.63 1002.21 1003.08 1003.06 1003.68 1004.02 1004.68 1004.52 1004.86 1005.23 1005.47 1005.76 1005.74 1005.65 1005.80 1006.13 1006.18 1006.17 1006.29 1006.15 1006.63 1006.34 1006.75 1006.21 1005.84 1005.86 1006.61 1007.63 1008.18 1008.48
999.52 999.82 1000.26 1000.41 1000.62 1000.88 1000.82 1001.05 1001.74 1002.10 1001.70 1001.29 1001.34 1001.52 1000.93 1000.91 1001.42 1002.03 1003.69 1004.98 1005.35 1004.87 1005.39 1005.64 1005.89 1006.13 1006.34 1006.17 1006.48 1006.76 1006.90 1006.92 1006.80 1006.91 1006.91 1006.94 1006.80 1006.62 1006.12 1006.33 1007.19 1007.95 1008.09 1008.71
999.48 999.69 1000.07 1000.04 1000.00 1000.52 1000.96 1001.16 1000.74 1000.93 1000.63 999.84 999.81 1000.20 999.78 999.75 1001.20 1002.21 1003.72 1004.62 1005.16 1005.35 1005.81 1005.93 1006.05 1006.42 1006.98 1007.04 1007.00 1007.24 1007.43 1007.34 1007.31 1007.23 1007.13 1007.14 1007.30 1007.32 1007.26 1007.75 1007.77 1007.78 1007.59 1008.18
998.94 999.52 999.68 1000.06 999.82 999.85 1000.30 1000.33 998.57 998.48 998.62 998.67 999.37 999.01 1000.04 1001.34 1002.17 1003.05 1003.97 1004.76 1005.29 1005.39 1005.49 1005.86 1006.37 1006.67 1007.22 1007.59 1007.62 1007.57 1007.73 1007.90 1007.97 1008.05 1008.05 1008.17 1008.23 1007.51 1007.61 1008.30 1008.35 1007.85 1007.65 1007.92
998.55 998.36 999.69 1000.04 999.91 999.75 999.77 999.66 999.17 999.03 998.30 998.05 999.29 1000.47 1001.53 1002.09 1002.72 1003.50 1004.20 1004.93 1005.45 1005.97 1005.91 1005.94 1006.34 1006.77 1007.48 1007.95 1008.49 1008.41 1008.54 1008.65 1008.66 1008.79 1008.76 1008.96 1009.02 1009.04 1009.11 1009.06 1009.22 1008.71 1008.60 1008.50
998.26 998.92 999.57 1000.50 1000.30 999.87 999.62 999.50 999.58 999.95 999.24 998.82 998.74 999.25 999.48 1001.41 1002.45 1003.47 1004.43 1005.23 1005.78 1005.96 1005.84 1006.07 1006.50 1007.26 1007.84 1008.36 1008.73 1008.79 1008.72 1009.10 1009.19 1009.24 1009.37 1009.42 1009.50 1009.64 1009.96 1009.99 1009.90 1009.79 1009.66 1009.46
999.10 999.12 1000.25 1000.43 1000.64 999.95 1000.26 999.74 999.67 999.64 999.73 999.88 999.81 1000.19 1000.72 1001.41 1002.25 1003.44 1004.34 1005.24 1005.95 1006.00 1005.86 1006.21 1006.72 1007.35 1007.69 1007.98 1008.16 1009.09 1009.16 1009.02 1009.32 1009.61 1009.66 1009.78 1009.77 1009.84 1009.93 1009.98 1009.94 1009.79 1009.73 1009.55
999.57 999.89 1001.03 1000.39 1000.47 1000.58 1000.42 999.90 1000.16 1000.39 1000.98 1000.64 1000.45 1001.48 1001.91 1001.87 1002.11 1003.21 1004.06 1005.12 1005.76 1006.23 1006.24 1006.56 1007.02 1007.63 1007.98 1008.37 1008.51 1008.45 1009.09 1009.21 1009.42 1009.63 1009.63 1009.75 1010.07 1010.08 1010.04 1009.96 1009.88 1009.67 1009.46 1009.25
1000.17 1000.41 1001.51 1001.82 1002.09 1001.82 1001.19 1000.72 1000.68 1001.00 1002.06 1001.61 1001.68 1002.00 1002.82 1002.60 1002.56 1003.62 1004.18 1004.57 1005.13 1005.89 1006.55 1006.95 1007.38 1007.57 1008.15 1008.61 1008.69 1008.94 1009.16 1009.26 1009.62 1009.84 1009.89 1009.85 1009.85 1009.88 1009.84 1009.81 1009.68 1009.46 1009.24 1009.01
1001.43 1001.50 1001.46 1001.80 1002.06 1002.17 1001.78 1001.57 1001.59 1002.01 1002.35 1002.75 1002.10 1002.05 1002.78 1002.88 1003.43 1004.04 1004.49 1004.62 1004.86 1005.43 1006.48 1007.41 1007.62 1007.87 1008.41 1008.78 1009.00 1009.18 1009.36 1009.56 1009.76 1009.78 1009.77 1009.66 1009.70 1009.70 1009.57 1009.39 1009.24 1009.03 1008.85 1008.57
1002.37 1002.66 1002.73 1003.47 1003.12 1002.65 1002.65 1002.43 1002.44 1002.57 1002.50 1002.43 1001.77 1001.43 1001.39 1002.26 1003.43 1004.19 1004.75 1005.11 1005.60 1006.10 1006.62 1007.37 1008.03 1008.18 1008.51 1008.78 1009.11 1009.51 1009.56 1009.84 1009.85 1009.81 1009.72 1009.61 1009.51 1009.24 1008.98 1008.76 1008.57 1008.47 1008.37 1008.09
1003.06 1003.37 1003.85 1003.70 1003.47 1003.35 1002.82 1002.64 1002.55 1002.54 1002.71 1002.65 1002.61 1002.50 1002.62 1003.33 1003.98 1004.54 1004.78 1005.75 1006.07 1006.36 1006.84 1007.60 1008.04 1008.26 1008.62 1008.91 1009.24 1009.59 1009.96 1009.91 1009.84 1009.74 1009.54 1009.29 1009.00 1008.69 1008.39 1008.16 1008.00 1007.81 1007.61 1007.43
1002.82 1003.27 1003.31 1002.82 1003.07 1003.42 1002.93 1002.24 1002.29 1002.44 1002.59 1002.71 1002.67 1002.67 1002.93 1003.80 1004.19 1004.45 1004.89 1005.56 1006.21 1006.74 1007.35 1007.69 1007.83 1008.11 1008.48 1008.92 1009.27 1009.57 1009.74 1009.76 1009.72 1009.54 1009.24 1008.86 1008.52 1008.16 1007.85 1007.55 1007.39 1007.28 1007.14 1007.08
1002.68 1003.05 1003.30 1003.02 1003.95 1003.41 1002.91 1003.21 1003.06 1002.84 1002.53 1002.97 1003.61 1003.79 1004.09 1004.44 1004.67 1005.04 1005.37 1005.84 1006.41 1007.07 1007.72 1008.03 1008.20 1008.43 1008.68 1008.96 1009.43 1009.63 1009.70 1009.71 1009.63 1009.35 1008.93 1008.61 1008.26 1007.86 1007.67 1007.45 1007.39 1007.30 1007.21 1006.94
1002.99 1003.12 1003.73 1003.59 1003.70 1002.84 1003.16 1003.86 1003.61 1003.38 1003.56 1004.16 1004.40 1004.52 1004.64 1005.02 1005.45 1005.70 1006.66 1007.12 1007.70 1008.15 1008.56 1008.65 1008.64 1008.72 1008.92 1009.25 1009.39 1009.46 1009.57 1009.57 1009.40 1009.06 1008.75 1008.50 1008.26 1008.02 1007.91 1007.75 1007.67 1007.76 1007.87 1007.68
1003.90 1003.83 1004.85 1004.42 1004.07 1003.12 1003.90 1004.83 1005.03 1004.89 1004.62 1005.77 1005.98 1005.81 1006.28 1006.71 1006.52 1006.38 1007.92 1007.99 1008.41 1008.66 1008.62 1008.53 1008.58 1008.75 1009.01 1009.06 1009.21 1009.24 1009.20 1009.18 1009.01 1008.92 1008.79 1008.76 1008.56 1008.50 1008.54 1008.66 1008.59 1008.40 1008.19 1008.02
1004.24 1004.71 1005.31 1005.05 1005.05 1004.08 1004.75 1005.73 1006.11 1005.73 1007.33 1007.13 1007.23 1007.32 1007.33 1007.20 1007.27 1007.65 1008.14 1008.36 1008.78 1008.85 1008.60 1008.39 1008.38 1008.42 1008.49 1008.64 1008.92 1008.95 1008.96 1008.91 1009.05 1009.15 1009.13 1009.31 1009.43 1009.51 1009.31 1008.99 1008.87 1008.79 1008.28 1007.91
1004.15 1004.73 1005.19 1005.29 1005.94 1005.77 1005.99 1006.47 1006.27 1007.60 1007.74 1007.71 1007.91 1008.01 1007.94 1008.02 1008.02 1008.43 1008.72 1008.93 1008.93 1008.75 1008.33 1008.15 1008.06 1008.08 1008.28 1008.65 1008.83 1008.78 1008.91 1009.14 1009.39 1009.89 1010.09 1010.04 1009.90 1009.68 1009.80 1009.45 1008.72 1008.38 1007.93 1007.32
1004.11 1004.32 1005.10 1005.51 1005.67 1006.37 1006.60 1006.86 1007.65 1008.01 1008.17 1008.19 1008.35 1008.54 1009.12 1009.23 1009.11 1009.07 1008.71 1008.60 1008.25 1008.30 1008.25 1008.27 1008.28 1008.35 1008.63 1008.88 1009.09 1009.08 1009.27 1010.00 1010.49 1010.63 1010.50 1010.29 1010.30 1010.00 1009.55 1008.80 1008.16 1007.65 1007.21 1006.66
1004.42 1004.92 1004.34 1005.27 1005.95 1006.54 1007.13 1007.64 1007.95 1008.27 1008.49 1008.74 1009.33 1009.38 1009.19 1009.16 1009.10 1009.08 1008.99 1008.81 1008.67 1008.67 1008.67 1008.86 1008.95 1008.96 1009.08 1009.32 1009.59 1010.26 1010.78 1011.10 1011.16 1010.99 1010.80 1010.73 1010.15 1009.34 1008.84 1008.21 1007.67 1007.09 1006.44 1005.83
1004.36 1005.10 1004.88 1005.28 1005.89 1006.90 1007.64 1008.27 1008.74 1008.95 1009.17 1009.48 1009.52 1009.68 1009.85 1009.95 1009.81 1009.73 1009.59 1009.53 1009.53 1009.53 1009.53 1009.73 1010.01 1009.97 1010.10 1010.76 1011.16 1011.50 1011.53 1011.83 1011.67 1011.65 1011.03 1010.39 1009.78 1009.12 1008.26 1007.59 1006.95 1006.33 1005.54 1005.26
1005.02 1004.92 1005.20 1005.17 1006.58 1007.08 1008.52 1009.06 1009.50 1009.91 1010.22 1010.31 1010.52 1010.46 1010.43 1010.47 1010.39 1010.38 1010.35 1010.45 1010.52 1010.50 1010.78 1010.82 1011.43 1011.89 1012.11 1012.21 1012.12 1012.06 1012.24 1012.45 1012.14 1011.29 1010.72 1010.15 1009.46 1008.67 1007.91 1006.98 1005.72 1005.35 1004.59 1003.90
Wind_Speed
19 17 23 29 26 23 23 23 24 13 17 18 16 17 16 14 20 14 16 15 15 13 6 5 7 7 7 9 8 8 9 8 8 10 10 10 10 10 10 10 11 10 10 13
19 22 22 20 19 22 22 12 20 7 12 17 16 18 18 16 25 17 20 16 11 4 6 0 2 2 5 8 9 9 10 10 9 9 7 7 8 9 10 10 8 11 13 12
19 21 20 20 22 20 19 15 15 15 19 19 19 20 18 19 15 15 7 3 5 5 2 2 3 2 3 4 4 4 7 10 10 11 7 6 8 6 9 9 9 10 13 13
18 19 24 20 22 20 16 14 19 13 15 13 16 8 16 19 17 14 12 11 8 3 2 5 5 5 4 4 2 2 5 7 8 9 9 9 8 9 9 8 10 10 10 12
17 19 23 20 18 17 20 21 15 11 14 14 19 9 13 22 18 21 12 1 4 4 4 6 8 7 7 7 6 5 2 2 5 4 8 8 9 9 8 7 7 6 8 10
20 18 14 17 19 19 22 5 12 15 15 15 17 12 11 18 20 20 12 8 4 5 6 6 8 8 8 9 9 8 8 6 3 3 5 8 9 7 8 3 2 6 7 7
13 13 15 16 18 15 17 13 11 11 11 11 21 17 7 11 13 21 17 12 10 6 8 6 7 10 10 11 11 10 10 11 10 10 8 4 3 2 4 2 6 6 7 8
14 17 20 11 14 14 20 19 13 11 14 15 8 7 11 13 11 10 12 8 7 5 7 8 6 7 10 10 10 11 11 11 10 9 9 8 8 2 1 5 8 4 5 5
16 16 16 17 17 18 16 20 19 11 10 5 10 13 10 14 12 11 11 9 6 3 4 1 7 4 6 7 7 8 8 9 9 8 6 7 7 8 8 8 7 7 6 8
11 9 15 11 12 13 13 12 9 8 9 11 8 16 8 19 15 14 12 9 6 4 3 3 1 5 2 5 6 6 6 6 7 6 6 6 4 4 4 5 7 8 8 10
10 10 11 14 14 14 12 12 11 11 11 10 11 7 14 13 15 13 13 9 6 4 4 3 0 4 3 2 6 5 5 5 5 5 5 5 6 7 6 7 8 8 9 10
8 9 13 17 16 5 13 19 14 8 12 8 8 6 5 3 12 13 11 10 1 3 6 6 4 4 5 2 5 2 4 6 5 6 7 7 7 8 8 9 10 10 12 12
7 7 9 5 9 9 11 10 6 6 1 9 7 5 8 2 6 6 5 5 8 3 6 5 4 3 1 2 3 4 5 6 7 7 9 9 10 10 11 11 12 13 14 14
2 5 11 5 2 8 16 15 9 11 6 9 14 9 13 9 6 8 7 7 10 4 7 7 5 4 3 4 5 7 8 7 9 10 11 12 12 13 13 13 14 14 15 16
6 7 7 2 6 1 11 12 14 16 15 13 9 8 2 5 2 5 8 8 8 7 7 5 6 4 6 7 7 9 10 10 11 12 13 14 14 14 15 15 15 15 15 16
9 7 15 19 7 8 9 10 11 12 12 11 10 10 7 6 4 5 2 0 6 4 4 5 6 7 8 9 9 10 12 13 13 14 15 16 16 16 16 15 15 15 16 16
9 5 6 11 7 4 9 14 15 12 11 9 10 7 6 2 4 4 4 3 5 5 6 9 9 9 8 10 10 12 13 14 15 16 17 17 17 17 17 17 17 16 15 14
10 8 7 5 5 9 10 7 7 4 9 4 6 7 2 5 5 5 7 9 6 5 8 8 10 11 11 11 12 13 14 15 16 17 17 17 18 18 18 17 17 15 15 15
6 8 2 5 10 1 14 4 2 2 9 3 6 4 5 10 8 9 9 8 8 10 11 12 11 12 13 13 14 14 15 15 16 17 17 17 18 18 18 18 18 16 14 13
6 3 4 5 4 4 12 8 4 2 6 6 2 4 8 8 8 4 6 9 8 10 11 11 13 14 15 14 14 15 16 16 17 17 18 18 18 18 19 18 16 14 15 16
9 6 8 5 3 2 12 6 2 7 6 3 4 7 10 11 10 9 11 12 12 14 16 15 15 15 16 14 15 16 17 17 17 17 18 19 18 18 16 14 15 16 13 13
8 7 7 3 4 6 9 6 4 7 1 5 9 10 13 14 14 13 13 12 12 13 17 18 16 16 15 16 16 17 17 17 17 18 18 18 17 13 13 16 14 14 13 14
6 6 5 6 2 8 4 8 6 4 6 7 9 11 14 11 11 12 12 12 14 17 16 16 16 17 16 16 16 17 17 18 17 17 18 17 16 14 13 13 14 12 11 11
1 5 1 5 10 5 4 2 3 5 6 10 10 7 8 11 14 15 15 16 17 17 17 17 18 17 18 16 16 17 17 15 14 17 18 14 14 15 14 11 9 10 10 10
5 9 6 6 10 5 5 6 7 6 6 6 9 12 12 13 15 17 17 17 17 17 16 16 17 17 18 19 18 16 15 13 17 13 13 14 11 12 13 13 10 10 12 11
5 2 4 6 9 6 8 5 6 9 7 8 10 13 13 14 15 17 15 15 16 16 17 16 19 18 18 17 16 15 14 13 13 13 11 11 11 10 11 11 12 14 20 24
Wind_Direction
188 217 207 200 211 219 220 216 221 216 175 198 221 249 239 214 265 273 268 236 254 269 286 322 303 288 281 281 271 232 233 240 200 209 214 210 229 222 229 228 210 197 205 211
185 216 201 212 223 224 247 208 219 153 217 192 203 233 252 227 230 201 250 231 205 223 235 55 286 278 263 250 238 231 229 230 209 214 222 246 221 231 224 220 193 198 210 213
195 197 217 214 211 220 223 232 216 205 197 197 202 220 212 237 240 260 227 2 134 223 226 100 71 27 284 228 245 248 229 233 220 234 204 214 258 263 217 219 194 202 213 208
210 209 203 203 217 218 213 213 227 207 188 212 216 224 212 214 213 246 223 201 198 166 106 83 61 43 36 351 12 253 267 220 235 218 250 216 234 241 225 212 209 187 211 221
207 215 189 212 211 201 235 193 226 226 200 244 176 237 259 184 206 201 201 240 191 138 68 67 60 39 40 48 47 48 17 224 285 214 245 248 227 260 242 244 110 179 197 220
216 192 203 205 210 192 230 153 205 215 233 220 225 210 228 179 206 189 153 150 238 101 99 89 86 67 45 61 71 65 66 62 64 222 211 258 290 257 301 172 222 217 189 204
218 195 200 215 205 185 218 204 195 194 217 234 207 205 207 159 178 146 154 166 153 149 110 66 66 76 65 65 68 78 70 66 59 55 51 60 34 310 257 216 222 218 200 197
199 182 203 187 226 195 207 216 238 189 196 211 168 193 120 124 119 120 143 145 154 160 124 111 71 81 85 63 58 71 72 70 68 64 66 52 15 59 177 215 350 234 276 211
198 196 170 197 221 202 192 229 248 313 279 274 156 106 125 151 152 150 159 164 141 137 149 139 128 106 83 80 57 56 57 60 46 51 43 41 28 15 354 356 332 299 312 296
200 149 165 182 239 239 282 207 214 228 275 233 234 180 201 168 162 167 159 167 157 185 189 131 86 70 357 129 121 62 43 49 40 24 21 33 360 356 348 325 303 298 294 296
240 188 197 162 211 206 210 244 212 254 217 224 248 86 105 155 158 163 178 150 179 226 272 215 155 133 186 43 61 46 12 5 28 5 353 341 333 320 307 303 293 292 290 287
219 223 180 200 199 274 291 208 223 222 249 271 306 112 76 65 151 168 178 156 166 337 330 325 351 22 332 13 358 50 6 321 344 331 324 318 302 299 295 292 290 288 283 279
185 229 166 209 179 219 240 226 276 299 287 258 247 239 11 137 135 127 271 242 181 201 276 299 255 228 272 285 298 313 318 324 324 317 304 302 301 295 289 285 284 283 282 279
272 233 234 235 355 256 209 233 238 257 224 248 257 225 198 160 186 204 230 267 293 313 273 262 282 246 215 296 309 321 317 320 313 307 302 301 297 293 289 287 283 281 280 281
196 225 265 74 241 132 200 209 221 228 231 232 261 270 178 65 357 300 297 300 295 278 236 227 257 286 309 311 318 309 320 316 305 304 300 297 292 287 286 286 286 286 284 281
205 180 239 184 176 248 249 244 244 224 234 243 254 263 299 296 335 262 254 229 285 274 265 250 256 277 296 299 312 315 308 302 305 303 296 295 293 290 286 284 284 279 278 278
190 172 213 243 132 266 252 234 231 232 235 248 254 262 69 145 256 275 284 299 281 267 310 311 306 293 310 315 312 308 305 307 301 298 295 294 294 291 288 288 290 289 289 288
194 199 170 182 150 225 86 62 27 307 243 208 238 291 313 279 279 287 316 303 299 319 321 318 313 312 310 318 312 303 303 306 301 297 296 296 295 296 298 298 295 294 291 297
208 198 202 229 198 22 152 115 53 275 146 113 0 321 299 16 336 273 32 32 357 348 328 311 313 310 313 307 303 306 304 299 299 298 299 302 305 304 302 300 303 309 304 295
204 167 166 216 254 228 78 96 57 343 150 53 354 4 12 330 278 123 24 325 307 298 287 305 309 312 304 301 310 306 303 303 303 305 309 307 308 311 311 310 303 297 302 297
172 170 185 208 221 2 109 107 272 240 89 57 4 332 314 300 315 331 340 324 321 318 306 307 303 299 303 314 315 306 305 306 312 313 320 320 316 306 302 301 309 299 288 283
174 159 202 153 178 245 109 156 284 65 279 350 328 321 311 331 334 333 323 313 301 295 297 307 306 307 317 316 312 309 310 315 330 329 316 308 305 310 311 292 288 283 281 279
181 165 181 166 164 98 108 64 74 349 319 316 323 350 360 335 305 295 296 306 312 317 312 312 314 315 311 314 318 313 324 340 326 314 308 308 312 294 284 286 286 286 279 272
110 110 171 160 150 149 119 31 331 329 341 5 356 315 310 322 324 319 316 317 317 318 320 320 314 314 316 315 331 338 332 322 320 311 314 301 293 298 296 288 282 276 276 274
39 157 207 177 136 125 131 60 25 350 3 353 354 343 334 323 319 321 320 320 321 320 321 328 319 314 332 338 327 325 325 334 321 307 294 296 297 296 297 290 285 279 274 268
176 79 212 76 73 54 104 89 21 44 9 0 352 329 332 331 327 327 325 326 324 331 324 335 340 330 323 321 321 325 332 328 309 300 304 299 298 296 290 291 294 275 267 270